Weather observations for the past three days for
Palo Alto Airport
Imperial (Metric)
Date Time (pdt) Wind (mph) Vis. (mi.) Weather Sky Cond. Temperature (ºF) Relative Humidity Wind Chill (°F) Heat Index (°F) Pressure Precipitation (in)
Air Dwpt 6 hour altimeter (in) sea level (mb) 1 hr 3 hr 6 hr
Max. Min.
21 15:47 N 15 10.00 Clear SKC 69.8 57.2 64% 29.92 0.0
21 14:47 N 16 10.00 Clear SKC 69.8 59 69% 29.94 0.0
21 13:47 N 15 10.00 Clear SKC 68 59 73% 29.95 0.0
21 12:47 N 14 10.00 Clear SKC 68 59 73% 29.97 0.0
21 11:47 N 14 10.00 Clear SKC 68 57.2 69% 29.98 0.0
21 10:47 N 10 10.00 Clear SKC 69.8 57.2 64% 29.98 0.0
21 09:47 N 5 10.00 A Few Clouds FEW008 66.2 55.4 68% 29.99 0.0
21 08:47 NW 8 10.00 A Few Clouds FEW008 64.4 55.4 73% 30 0.0
21 07:47 Calm 10.00 A Few Clouds FEW008 62.6 55.4 77% 30 0.0
21 06:47 SW 3 10.00 A Few Clouds FEW008 57.2 55.4 94% 29.99 0.0
20 20:47 NW 9 10.00 Clear SKC 64.4 57.2 78% 29.96 0.0
20 19:47 NW 10 10.00 Clear SKC 66.2 57.2 73% 29.95 0.0
20 15:47 N 18 10.00 Clear SKC 75.2 60.8 61% 77 29.92 0.0
20 14:47 N 15 10.00 Clear SKC 73.4 60.8 65% 29.94 0.0
20 13:47 N 15 10.00 Clear SKC 71.6 60.8 69% 29.95 0.0
20 12:47 N 13 10.00 Clear SKC 71.6 59 65% 29.96 0.0
20 11:47 N 12 10.00 Clear SKC 71.6 60.8 69% 29.95 0.0
20 11:05 N 13 10.00 Clear SKC 69.8 60.8 73% 29.96 0.0
20 10:47 N 12 10.00 Clear SKC 69.8 60.8 73% 29.96 0.0
20 09:47 N 7 10.00 Clear SKC 68 59 73% 29.96 0.0
20 08:47 N 5 10.00 Clear SKC 66.2 57.2 73% 29.96 0.0
20 07:47 NW 5 10.00 Clear SKC 64.4 55.4 73% 29.95 0.0
20 06:55 Calm 8.00 Clear SKC 60.8 55.4 83% 29.94 0.0
19 20:47 NW 9 10.00 Clear SKC 68 57.2 69% 29.94 0.0
19 19:47 NW 13 10.00 Clear SKC 73.4 55.4 53% 29.93 0.0
19 17:47 NW 16 10.00 Clear SKC 80.6 57.2 45% 81 29.91 0.0
19 16:47 NW 22 10.00 Clear and Breezy SKC 82.4 55.4 40% 82 29.91 0.0
19 15:47 NW 16 10.00 Clear SKC 86 57.2 38% 85 29.93 0.0
19 14:47 N 15 10.00 Clear SKC 86 57.2 38% 85 29.95 0.0
19 13:47 NW 10 10.00 Clear SKC 84.2 59 43% 84 29.96 0.0
19 12:47 N 9 10.00 Clear SKC 75.2 59 57% 78 29.98 0.0
19 11:47 N 9 10.00 Clear SKC 73.4 62.6 69% 29.99 0.0
19 10:47 Vrbl 5 10.00 Clear SKC 69.8 60.8 73% 30 0.0
19 09:47 Vrbl 3 10.00 Clear SKC 66.2 59 78% 30.02 0.0
19 08:47 Vrbl 5 10.00 Clear SKC 64.4 57.2 78% 30.02 0.0
19 07:47 Calm 10.00 Clear SKC 62.6 57.2 83% 30.02 0.0
19 06:55 Calm 10.00 Clear SKC 57.2 53.6 88% 30.01 0.0
18 20:47 NW 16 10.00 Clear SKC 66.2 57.2 73% 30.01 0.0
18 19:47 NW 16 10.00 Clear SKC 66.2 55.4 68% 30 0.0
18 18:47 NW 20 10.00 Clear SKC 69.8 57.2 64% 29.97 0.0
18 17:47 NW 20 10.00 Clear SKC 71.6 57.2 61% 29.97 0.0
18 16:47 N 18 10.00 Clear SKC 73.4 59 61% 29.97 0.0
Date Time (pdt) Wind (mph) Vis. (mi.) Weather Sky Cond. Air Dwpt Max. Min. Relative Humidity Wind Chill (°F) Heat Index (°F) altimeter (in) sea level (mb) 1 hr 3 hr 6 hr
6 hour
Temperature (ºF) Pressure Precipitation (in)